Simultaneous Nadir Overpasses (SNOs) Predictions

Prediction of SNOs over PacNW region [( 10.00, 139.50) to ( 22.70, 165.60)] between AQUA and NPP Satellites:

Table of predicted SNOs over PacNW region for the next 30.0 days since TLE Epoch: 3/27/2020
Index Date (AQUA) Time (AQUA) AQUA Lat,Lon Date (NPP) Time (NPP) NPP Lat,Lon Distance(km) Time Diff (sec)
1 03/29/2020 15:10:12 22.63, 159.83 03/29/2020 15:10:44 23.21, 157.24 273.34 32
2 04/06/2020 15:59:39 22.60, 147.46 04/06/2020 16:01:29 23.23, 144.56 305.96 110
3 04/14/2020 15:10:11 22.63, 159.83 04/14/2020 15:10:45 23.19, 157.23 273.57 34
4 04/22/2020 15:59:37 22.60, 147.47 04/22/2020 16:01:30 23.24, 144.56 306.67 113




NCC Satellite Simultaneous Nadir Overpasses (SNOs) Prediction Service
